Wind_Speed
31 30 28 30 36 39 45 47 46 46 49 53 58 60 65 68 76 85 96 84 76 71 67 65 66 68 72 76 81 86 88 91 96 98 97 102 103 104 103 104 105 107 105 104 104
33 32 31 33 39 39 46 49 46 49 47 47 52 61 68 74 82 91 95 81 79 73 69 67 67 69 73 75 78 81 85 92 92 95 97 100 101 106 107 105 106 108 108 105 107
31 29 32 35 38 46 47 48 50 51 51 66 64 65 75 83 93 101 90 82 75 72 71 69 69 70 73 78 80 80 83 88 88 91 94 95 100 105 105 105 107 112 110 102 107
32 31 35 36 39 47 47 47 49 56 53 54 67 74 80 86 102 97 86 83 77 75 76 76 75 75 76 80 82 84 87 87 91 94 94 95 95 97 103 101 110 113 113 108 105
34 30 32 38 43 44 47 55 60 60 61 62 68 76 87 93 106 90 85 83 82 82 79 76 74 71 71 74 75 76 81 84 87 94 98 98 97 101 97 97 107 110 117 111 106
33 30 34 38 41 47 50 52 57 68 68 68 74 79 94 101 103 91 88 87 89 86 82 73 66 63 60 61 61 63 66 70 76 86 91 94 95 99 94 102 105 108 112 113 109
35 32 36 37 43 52 61 65 72 68 74 75 76 85 99 110 100 94 91 92 92 85 72 66 59 54 52 53 53 55 57 63 72 77 75 83 79 90 104 105 102 105 107 109 110
35 34 36 42 47 55 61 63 63 76 80 81 88 87 104 114 102 97 96 98 93 79 70 60 53 50 47 44 44 45 53 57 65 69 63 61 63 84 92 105 107 106 106 107 108
36 37 40 46 49 56 57 65 64 76 81 84 94 87 109 114 102 97 98 102 88 74 63 55 53 51 47 42 40 40 44 49 56 58 50 46 57 80 86 98 108 108 109 105 108
36 38 43 48 55 60 58 69 65 81 85 89 94 96 113 110 101 97 99 94 77 65 62 56 53 53 51 45 38 37 39 44 42 45 44 48 65 75 76 86 101 108 109 106 105
35 37 41 49 54 56 67 67 68 77 82 89 95 101 116 111 99 99 103 93 72 64 68 65 62 56 52 45 38 35 35 35 33 31 38 43 51 57 68 76 93 102 107 107 104
34 40 46 52 51 58 63 64 68 81 84 93 93 103 115 107 102 98 101 89 70 65 68 73 69 63 55 47 40 36 33 29 30 24 31 35 45 47 58 67 81 97 105 107 104
37 42 42 49 58 60 65 70 75 80 83 91 92 103 113 105 98 96 96 83 61 61 68 75 71 65 58 54 48 37 32 29 24 23 22 32 36 41 49 60 74 87 99 107 104
36 44 46 55 59 63 64 71 76 81 84 91 96 108 115 107 97 93 93 78 63 55 70 75 71 62 57 51 48 40 34 23 24 20 18 30 26 33 42 53 67 81 93 101 103
43 44 50 53 56 58 62 69 76 81 87 90 97 115 120 104 98 93 91 77 67 68 67 73 68 59 56 50 42 38 36 24 22 20 17 24 23 30 40 47 59 73 85 95 103
45 47 48 50 53 61 63 68 75 79 85 89 97 116 117 108 96 94 93 80 66 74 71 65 59 56 52 45 40 39 37 31 20 20 16 18 21 27 33 41 50 65 79 88 95
47 52 55 59 59 65 67 68 75 80 86 91 95 112 114 103 92 90 87 74 60 61 68 56 53 52 47 45 41 35 29 28 27 24 17 14 15 21 28 37 46 58 73 85 92
45 51 56 59 62 65 68 72 74 80 83 90 94 112 114 98 87 87 85 69 61 64 58 50 47 44 39 39 34 28 25 24 22 19 13 10 10 17 24 31 42 55 68 80 88
49 49 50 57 60 64 68 71 75 80 86 89 94 103 110 98 86 86 81 61 59 53 50 47 46 41 37 35 27 33 36 32 28 21 12 7 7 10 16 25 36 49 60 77 84
45 46 46 53 58 61 65 69 76 79 82 91 95 106 107 93 85 81 76 58 53 52 51 47 48 44 37 28 33 37 37 37 34 29 19 10 4 4 9 20 33 45 55 71 83
44 46 50 55 61 61 65 68 76 78 80 90 96 105 103 89 82 77 70 54 55 54 47 47 47 40 35 36 36 40 37 36 35 33 28 19 10 2 7 17 29 40 52 70 78
47 49 50 50 60 63 64 72 78 78 79 89 95 104 97 85 79 71 60 52 51 52 46 45 45 42 40 37 40 40 37 36 35 35 32 27 18 8 11 18 28 39 51 68 74
46 48 50 54 57 59 68 72 75 76 78 86 95 101 94 80 76 64 50 49 50 48 48 49 52 50 47 46 45 38 38 37 35 34 31 25 19 19 19 23 31 40 51 65 68
50 50 52 56 57 62 68 74 74 73 78 82 93 99 90 76 73 53 41 48 50 43 44 50 48 47 48 46 42 45 43 42 42 36 29 24 28 28 31 33 38 44 52 62 65
46 50 51 54 56 62 67 76 72 68 74 84 90 96 83 72 68 43 36 43 48 38 38 47 49 47 45 43 45 48 46 44 40 35 34 29 36 43 43 45 50 53 54 55 58
50 49 51 56 62 63 71 73 70 64 71 81 89 91 77 67 64 40 36 43 46 29 32 40 47 46 41 38 41 46 44 40 40 39 45 49 51 54 53 55 54 52 49 51 53
56 55 61 60 61 64 68 69 61 63 68 77 87 85 71 62 59 39 29 35 43 37 28 31 39 44 45 44 45 44 44 42 41 39 39 40 47 50 52 51 50 50 50 49 45
Wind_Direction
306 310 313 306 308 311 311 312 311 304 296 293 296 309 313 318 321 318 324 318 311 307 302 295 287 281 274 269 265 263 260 256 254 253 249 245 244 244 244 242 241 243 240 239 240
306 308 314 307 312 316 313 313 319 311 313 316 317 320 317 327 325 324 324 319 315 310 303 296 290 283 277 272 267 264 262 259 257 253 250 246 243 242 241 240 241 242 239 236 236
303 308 309 311 312 323 325 325 321 314 310 314 318 319 326 328 327 327 325 321 313 307 302 298 294 288 283 277 272 267 264 263 260 255 251 245 244 241 239 238 239 241 241 237 233
297 304 309 311 310 318 324 335 326 330 322 330 327 331 331 328 330 329 326 318 315 312 308 302 295 288 283 277 272 269 264 260 258 255 252 247 242 240 236 236 238 240 239 238 233
295 303 305 307 312 321 323 321 327 330 332 335 331 330 333 331 335 331 324 322 321 317 310 305 297 289 283 278 274 271 266 261 255 252 248 241 239 239 237 236 237 235 238 236 233
292 301 307 316 318 321 326 330 326 330 332 327 330 327 332 334 337 333 330 327 325 322 315 309 303 298 292 283 279 274 271 266 260 254 249 246 241 237 236 232 233 234 234 233 233
296 299 303 312 317 319 318 321 321 332 334 331 331 331 333 338 339 336 333 331 329 325 322 317 312 303 297 291 286 280 275 268 263 257 252 247 240 238 231 230 227 229 231 231 231
294 297 301 314 328 323 321 320 323 331 332 335 331 331 337 341 341 338 337 335 332 329 326 325 318 310 303 302 295 285 278 271 267 265 260 252 245 238 230 229 224 225 226 227 228
290 299 309 311 325 324 323 320 321 330 338 335 331 328 339 343 343 341 339 338 335 331 330 333 329 326 319 314 305 293 284 277 273 271 267 256 239 238 228 224 224 221 223 223 226
292 300 309 315 319 321 322 322 320 329 332 335 329 333 339 345 343 342 342 341 337 344 342 341 337 335 329 325 316 304 294 287 279 277 268 246 236 233 229 222 221 219 220 219 223
293 304 314 317 319 314 330 325 326 327 330 336 334 339 341 347 346 345 342 342 340 350 353 351 346 344 335 331 323 315 302 296 289 276 262 252 246 240 230 221 218 218 216 217 218
307 316 317 319 314 316 325 325 323 323 326 333 334 341 344 349 346 345 343 342 344 356 357 352 347 343 337 337 333 328 317 305 289 285 270 259 245 231 232 222 217 214 215 215 214
318 323 316 317 319 320 316 328 332 333 331 333 334 339 347 349 347 345 344 341 349 359 359 350 347 342 340 340 339 335 324 314 294 288 275 261 251 233 228 220 213 212 213 212 211
315 320 312 312 314 318 322 322 333 332 336 339 338 341 351 348 347 345 342 343 344 354 358 349 344 341 341 343 340 334 324 314 302 288 271 263 252 236 224 223 213 211 210 209 209
307 316 312 313 317 323 324 326 329 331 335 339 341 343 350 351 347 345 345 347 347 348 359 346 344 341 342 344 339 332 329 324 311 301 281 261 252 230 222 217 212 211 211 206 207
308 309 322 320 323 330 328 331 334 333 337 340 343 346 348 349 348 345 345 347 351 349 351 347 344 342 343 344 340 338 342 336 321 315 300 273 251 234 223 212 207 211 210 203 204
307 306 308 315 322 324 330 327 333 335 337 340 342 348 348 348 348 346 343 347 355 354 350 349 346 345 345 347 349 349 349 347 337 333 323 293 260 243 223 214 202 207 209 201 201
308 304 307 308 321 325 330 327 332 337 338 337 341 347 348 348 348 344 344 353 356 360 355 350 348 352 352 355 356 351 360 355 354 353 351 315 273 241 225 214 204 202 204 201 196
304 310 309 315 320 322 327 327 330 338 339 338 344 348 346 348 346 345 345 355 359 2 360 353 357 356 0 9 359 9 14 9 9 6 4 347 283 250 226 213 203 197 201 196 191
302 303 308 318 328 330 328 324 330 338 336 339 345 348 347 347 346 346 346 356 360 6 4 6 7 6 7 9 13 26 20 16 17 12 11 6 351 265 215 198 196 194 192 192 187
303 302 303 308 328 329 331 330 336 338 337 339 345 348 347 348 345 346 348 1 3 12 7 14 18 15 14 23 31 32 26 24 25 24 18 23 32 62 167 179 185 185 185 186 186
308 302 310 316 323 326 326 331 338 339 338 339 344 348 348 347 346 345 351 8 8 11 13 24 28 29 31 33 40 37 34 36 33 34 27 30 36 70 136 159 166 175 177 180 180
297 305 308 311 317 325 327 333 336 337 335 339 346 347 350 347 346 346 358 11 11 12 16 29 29 35 39 38 39 39 39 42 42 45 37 41 56 82 112 133 149 161 167 172 172
298 296 298 315 319 318 324 332 334 336 335 339 347 346 349 346 349 352 7 21 15 13 19 34 31 38 43 43 35 44 44 45 50 50 53 50 75 89 105 121 137 145 158 162 167
297 301 307 313 317 320 322 329 333 335 334 339 347 346 347 349 351 355 7 17 14 8 19 39 38 35 43 42 40 48 46 46 50 63 72 74 89 97 108 117 126 134 144 151 167
294 295 304 312 315 318 322 327 332 333 334 338 346 345 347 351 352 359 17 19 19 21 26 38 43 40 32 36 37 46 53 47 48 56 76 88 93 98 101 110 117 124 133 152 166
295 295 306 309 314 315 321 324 331 331 334 338 344 345 346 352 353 3 15 25 21 16 15 31 45 46 42 33 31 43 51 53 48 53 67 77 95 99 102 101 111 123 139 154 166
Height
10733 10728 10723 10720 10715 10711 10705 10701 10694 10686 10680 10673 10668 10663 10652 10643 10632 10619 10604 10586 10572 10561 10552 10543 10536 10528 10522 10518 10514 10509 10510 10512 10512 10515 10526 10529 10535 10542 10549 10560 10561 10566 10588 10605 10613
10728 10723 10718 10713 10710 10704 10699 10693 10686 10679 10671 10665 10658 10650 10639 10626 10613 10600 10582 10564 10548 10537 10528 10518 10508 10500 10492 10486 10482 10481 10481 10473 10480 10482 10490 10496 10502 10510 10516 10530 10538 10542 10554 10578 10589
10722 10716 10712 10708 10704 10699 10690 10684 10677 10670 10661 10654 10645 10635 10623 10608 10594 10579 10559 10540 10527 10514 10502 10490 10481 10473 10463 10454 10450 10451 10448 10443 10448 10447 10452 10464 10469 10475 10487 10506 10513 10517 10526 10548 10564
10715 10710 10706 10702 10697 10691 10683 10675 10668 10661 10653 10641 10631 10619 10606 10593 10576 10555 10533 10513 10502 10487 10473 10461 10449 10439 10431 10420 10415 10415 10409 10413 10411 10409 10419 10427 10435 10447 10453 10482 10479 10491 10499 10519 10540
10708 10703 10699 10696 10691 10683 10674 10668 10660 10652 10643 10631 10617 10603 10590 10574 10556 10533 10509 10488 10473 10457 10440 10427 10412 10402 10393 10385 10382 10379 10374 10371 10374 10370 10373 10386 10403 10410 10434 10457 10454 10466 10473 10491 10514
10700 10696 10693 10690 10683 10676 10667 10659 10651 10642 10631 10618 10604 10590 10575 10558 10535 10510 10487 10465 10447 10427 10409 10392 10379 10368 10363 10355 10353 10348 10343 10339 10336 10330 10341 10352 10372 10378 10413 10397 10415 10432 10449 10464 10486
10694 10690 10686 10682 10675 10668 10659 10651 10643 10634 10618 10605 10590 10575 10560 10538 10513 10487 10466 10445 10421 10399 10382 10367 10355 10346 10339 10331 10326 10320 10318 10309 10298 10299 10318 10318 10348 10353 10352 10362 10385 10401 10422 10436 10461
10688 10684 10680 10674 10667 10660 10652 10644 10633 10621 10606 10591 10577 10561 10542 10521 10493 10468 10443 10423 10400 10380 10363 10349 10337 10329 10322 10316 10309 10304 10294 10288 10278 10277 10291 10307 10322 10308 10324 10334 10352 10372 10390 10413 10433
10683 10678 10673 10666 10658 10653 10644 10635 10624 10610 10596 10579 10562 10547 10527 10505 10476 10454 10432 10406 10383 10364 10350 10336 10323 10312 10304 10299 10292 10283 10275 10269 10263 10263 10274 10281 10279 10265 10283 10302 10321 10343 10364 10390 10409
10677 10671 10666 10660 10652 10644 10636 10626 10613 10601 10585 10568 10552 10533 10517 10492 10463 10441 10421 10399 10374 10353 10337 10326 10314 10302 10291 10284 10279 10269 10261 10250 10253 10250 10251 10246 10233 10241 10262 10282 10298 10318 10343 10368 10389
10670 10664 10659 10653 10645 10637 10627 10618 10605 10591 10579 10562 10541 10526 10504 10472 10454 10426 10404 10385 10368 10350 10331 10316 10304 10294 10283 10275 10267 10258 10248 10241 10238 10235 10228 10230 10232 10239 10242 10260 10276 10297 10322 10347 10369
10664 10658 10653 10647 10640 10632 10622 10611 10598 10583 10568 10554 10532 10514 10493 10464 10439 10418 10397 10377 10361 10344 10330 10315 10303 10290 10277 10267 10258 10248 10238 10231 10225 10220 10214 10214 10212 10218 10228 10246 10262 10276 10303 10328 10350
10658 10652 10648 10642 10635 10626 10616 10604 10592 10577 10562 10547 10529 10508 10487 10459 10439 10413 10394 10375 10361 10343 10327 10315 10303 10288 10275 10261 10249 10241 10230 10222 10216 10208 10204 10199 10203 10210 10219 10228 10242 10260 10283 10307 10333
10651 10647 10643 10636 10628 10619 10609 10596 10585 10571 10557 10540 10521 10505 10480 10450 10430 10412 10391 10374 10353 10344 10328 10315 10298 10285 10269 10257 10244 10232 10219 10213 10206 10199 10196 10190 10198 10205 10206 10219 10231 10242 10263 10292 10319
10646 10641 10636 10629 10621 10612 10603 10590 10577 10563 10548 10531 10513 10491 10470 10450 10425 10404 10387 10364 10342 10328 10322 10303 10289 10275 10265 10253 10240 10227 10217 10207 10199 10193 10189 10186 10191 10193 10195 10206 10221 10233 10252 10278 10300
10639 10635 10629 10622 10613 10605 10594 10584 10570 10557 10543 10523 10505 10486 10457 10435 10419 10397 10374 10358 10342 10321 10310 10300 10285 10272 10260 10250 10235 10225 10212 10202 10195 10188 10185 10183 10185 10184 10193 10200 10214 10228 10244 10271 10296
10633 10627 10621 10616 10606 10597 10587 10577 10565 10551 10533 10517 10501 10482 10462 10438 10419 10397 10379 10362 10348 10335 10310 10298 10283 10271 10257 10243 10235 10223 10211 10202 10194 10187 10182 10180 10181 10182 10188 10194 10205 10220 10238 10261 10286
10626 10619 10614 10608 10599 10590 10580 10571 10559 10546 10531 10515 10497 10473 10453 10440 10419 10398 10377 10359 10343 10326 10311 10297 10285 10273 10259 10247 10239 10223 10214 10204 10195 10188 10182 10179 10179 10179 10184 10191 10201 10211 10230 10257 10281
10619 10613 10608 10602 10593 10583 10574 10565 10553 10538 10525 10513 10496 10478 10452 10434 10416 10395 10375 10361 10343 10328 10315 10300 10288 10275 10262 10250 10237 10225 10214 10207 10197 10190 10184 10181 10178 10180 10183 10190 10199 10211 10230 10252 10278
10611 10606 10600 10593 10586 10578 10568 10559 10549 10534 10518 10505 10491 10474 10453 10433 10413 10394 10375 10362 10345 10330 10318 10304 10289 10276 10263 10253 10241 10230 10222 10211 10203 10194 10188 10184 10182 10181 10184 10189 10199 10210 10228 10251 10271
10605 10599 10594 10588 10581 10572 10563 10554 10543 10531 10516 10499 10484 10468 10448 10429 10412 10394 10377 10362 10344 10333 10321 10308 10293 10281 10267 10258 10246 10237 10230 10222 10213 10203 10195 10189 10186 10185 10186 10191 10200 10213 10229 10251 10277
10599 10593 10588 10582 10575 10567 10558 10549 10539 10526 10513 10498 10481 10465 10447 10429 10411 10394 10380 10366 10349 10341 10329 10314 10302 10289 10279 10270 10261 10252 10244 10236 10226 10215 10207 10199 10194 10191 10193 10196 10205 10217 10233 10253 10282
10590 10586 10582 10577 10569 10562 10554 10544 10535 10522 10509 10496 10480 10462 10446 10431 10415 10394 10383 10371 10356 10348 10336 10320 10307 10298 10292 10283 10274 10268 10259 10250 10241 10233 10222 10215 10207 10202 10203 10207 10215 10228 10244 10265 10291
10582 10579 10576 10570 10563 10557 10549 10540 10532 10520 10507 10494 10479 10461 10445 10432 10415 10398 10388 10377 10365 10358 10348 10333 10324 10314 10305 10299 10292 10280 10272 10265 10254 10248 10239 10229 10222 10218 10218 10221 10230 10243 10262 10280 10302
10575 10572 10568 10565 10558 10551 10544 10536 10527 10517 10504 10492 10480 10463 10447 10432 10417 10403 10393 10383 10374 10366 10359 10345 10337 10328 10319 10313 10305 10293 10286 10280 10274 10263 10255 10247 10239 10237 10237 10241 10248 10262 10283 10302 10321
10567 10565 10561 10558 10553 10546 10538 10531 10524 10514 10501 10489 10479 10466 10451 10437 10422 10409 10398 10390 10382 10374 10367 10357 10345 10340 10335 10326 10320 10311 10303 10296 10290 10282 10274 10267 10264 10262 10263 10266 10275 10288 10304 10323 10338
10558 10557 10554 10550 10545 10540 10534 10527 10521 10511 10499 10488 10479 10468 10454 10441 10426 10414 10406 10398 10389 10383 10376 10365 10356 10349 10346 10339 10330 10327 10319 10312 10306 10300 10295 10294 10289 10288 10287 10293 10300 10310 10325 10340 10353